sat.trackr.live / text

‹ back to catalog

STARLINK-32499

NORAD 61959 · 2024-210A

PAYLOAD ACTIVE UNKNOWN

§ Identity

Operator
Country
US
Launch date
2024-11-14
Launch site
AFETR
Launch vehicle
Mass (kg)
RCS (m²)

Purposes: comms

External: N2YO · Heavens-Above · Gunter

§ Orbital elements

Epoch: 2026-09-21T09:14:14.403552Z

Period
94.27 min
Inclination
42.9997°
Eccentricity
0.0001718
Mean motion
15.27583275 rev/d
Perigee alt
481.9 km
Apogee alt
484.2 km
Semi-major
6,861.2 km
B*
3.3626e-4
RAAN
154.2404°
Arg perigee
273.9775°
Mean anomaly
86.0880°
Rev number
10,485

§ Raw data

STARLINK-324991 61959U 24210A   26264.38488893  .00009003  00000+0  33626-3 0  99942 61959  42.9997 154.2404 0001718 273.9775  86.0880 15.27583275104852

JSON: /api/v1/satellites/61959 · /tle

For live sub-satellite position, see the globe view (requires WebGL).

§ Visibility from observer

Set your observer location to see the next 7 days of passes ≥ 10°. The values pass through the URL so the page stays shareable.

No JS? Fill the form by hand. The geolocation button needs JavaScript.